St. Joseph, KS

5:42 PM CDT on May 25, 2017 (GMT -0500)
Rosecrans Memorial

Weather History for KSTJ - March, 2014

Change the Weather History Date:

Wednesday, March 19, 2014

  Actual Average Record
Temperature  
Mean Temperature 42 °F 44 °F  
Max Temperature 54 °F 56 °F 88 °F (2017)
Min Temperature 29 °F 33 °F 0 °F (1923)
Degree Days  
Heating Degree Days 23 21  
Month to date heating degree days 563 468  
Since 1 July heating degree days 5503 4776  
Cooling Degree Days 0 0  
Month to date cooling degree days 0 0  
Year to date cooling degree days 0 0  
Moisture  
Dew Point 27 °F    
Average Humidity 55    
Maximum Humidity 82    
Minimum Humidity 28    
Precipitation  
Precipitation 0.00 in 0.07 in 1.22 in (1948)
Month to date precipitation 0.27 1.23  
Year to date precipitation 1.09 2.72  
Sea Level Pressure  
Sea Level Pressure 30.01 in    
Wind  
Wind Speed 14 mph (NW)    
Max Wind Speed 29 mph    
Max Gust Speed 36 mph    
Visibility 8 miles    
Events      
T = Trace of Precipitation, MM = Missing Value Source: NWS Daily Summary

Daily Weather History Graph

Daily Weather History Graph

Search for Another Location

Airport or City:

Trip Planner

Search our weather history database for the weather conditions in past years. The results will help you decide how hot, cold, wet, or windy it might be!

Date:

Astronomy

Mar. 19, 2014 Rise Set
Actual Time 7:24 AM CDT 7:30 PM CDT
Civil Twilight 6:57 AM CDT 7:57 PM CDT
Nautical Twilight 6:26 AM CDT 8:29 PM CDT
Astronomical Twilight 5:54 AM CDT 9:01 PM CDT
Moon 10:49 PM CDT (3/19) 8:51 AM CDT (3/19)
Length of Visible Light 12h 59m
Length of Day
12h 06m
Waning Gibbous, 91% of the Moon is Illuminated
Mar 19
Waning Gibbous
Mar 23
Last Quarter
Mar 30
New
Apr 7
First Quarter
Apr 15
Full

Hourly Weather History & Observations

Time (CDT) Temp. Windchill Dew Point Humidity Pressure Visibility Wind Dir Wind Speed Gust Speed Precip Events Conditions
12:18 AM 41.0 °F 30.7 °F 35.1 °F 79% 29.69 in 10.0 mi NNW 25.3 mph 34.5 mph N/A   Overcast
12:44 AM 37.9 °F 27.1 °F 33.1 °F 83% 29.71 in 8.0 mi NNW 23.0 mph 32.2 mph N/A   Overcast
12:53 AM 37.9 °F 26.6 °F 32.0 °F 79% 29.72 in 8.0 mi NNW 25.3 mph 33.4 mph N/A   Overcast
1:53 AM 36.0 °F 24.4 °F 30.0 °F 79% 29.77 in 8.0 mi NNW 23.0 mph 33.4 mph N/A   Overcast
2:07 AM 36.0 °F 24.2 °F 30.0 °F 79% 29.77 in 8.0 mi NNW 24.2 mph 35.7 mph N/A   Overcast
2:53 AM 36.0 °F 26.3 °F 28.9 °F 76% 29.81 in 8.0 mi NNW 16.1 mph 29.9 mph N/A   Overcast
3:53 AM 35.1 °F 23.5 °F 28.0 °F 76% 29.85 in 6.0 mi NNW 21.9 mph 32.2 mph N/A   Haze
4:53 AM 34.0 °F 23.4 °F 28.0 °F 79% 29.90 in 6.0 mi NW 17.3 mph - N/A   Haze
5:53 AM 35.1 °F 23.3 °F 28.0 °F 76% 29.95 in 8.0 mi NNW 23.0 mph 31.1 mph N/A   Overcast
6:53 AM 35.1 °F 25.2 °F 28.9 °F 78% 29.99 in 7.0 mi NW 16.1 mph - N/A   Overcast
7:08 AM 36.0 °F 25.6 °F 30.0 °F 79% 29.99 in 6.0 mi NNW 18.4 mph 25.3 mph N/A   Haze
7:33 AM 36.0 °F 26.7 °F 28.9 °F 76% 30.00 in 7.0 mi NW 15.0 mph - N/A   Overcast
7:53 AM 36.0 °F 25.3 °F 28.9 °F 76% 30.01 in 7.0 mi NW 19.6 mph 23.0 mph N/A   Overcast
8:53 AM 36.0 °F 25.6 °F 27.0 °F 70% 30.04 in 10.0 mi NW 18.4 mph - N/A   Overcast
9:53 AM 37.0 °F 27.7 °F 27.0 °F 67% 30.08 in 10.0 mi NW 16.1 mph 23.0 mph N/A   Overcast
10:53 AM 37.9 °F 27.6 °F 27.0 °F 65% 30.11 in 10.0 mi NW 20.7 mph - N/A   Overcast
11:53 AM 41.0 °F 32.2 °F 26.1 °F 55% 30.13 in 10.0 mi NW 18.4 mph - N/A   Mostly Cloudy
12:07 PM 42.1 °F 34.9 °F 27.0 °F 55% 30.12 in 10.0 mi NW 13.8 mph 23.0 mph N/A   Scattered Clouds
12:53 PM 45.0 °F 37.6 °F 26.1 °F 48% 30.14 in 10.0 mi WNW 17.3 mph 23.0 mph N/A   Scattered Clouds
1:53 PM 48.0 °F - 25.0 °F 41% 30.13 in 10.0 mi NW 21.9 mph 26.5 mph N/A   Clear
2:53 PM 50.0 °F - 24.1 °F 36% 30.11 in 10.0 mi WNW 20.7 mph 24.2 mph N/A   Clear
3:53 PM 52.0 °F - 23.0 °F 32% 30.10 in 10.0 mi NNW 15.0 mph 24.2 mph N/A   Clear
4:53 PM 53.1 °F - 21.9 °F 30% 30.09 in 10.0 mi NW 13.8 mph 23.0 mph N/A   Clear
5:53 PM 53.1 °F - 21.9 °F 30% 30.09 in 10.0 mi WNW 11.5 mph - N/A   Clear
6:53 PM 51.1 °F - 21.9 °F 32% 30.11 in 10.0 mi WNW 11.5 mph - N/A   Clear
7:53 PM 48.9 °F - 21.9 °F 35% 30.11 in 10.0 mi West 3.5 mph - N/A   Clear
8:53 PM 41.0 °F - 28.0 °F 60% 30.12 in 10.0 mi Calm Calm - N/A   Scattered Clouds
9:53 PM 37.9 °F - 25.0 °F 60% 30.12 in 2.0 mi Calm Calm - N/A   Haze
10:10 PM 39.0 °F - 26.1 °F 60% 30.10 in 4.0 mi Calm Calm - N/A   Haze
10:22 PM 36.0 °F - 28.0 °F 73% 30.10 in 2.0 mi Calm Calm - N/A   Haze
10:32 PM 33.1 °F 30.0 °F 26.1 °F 75% 30.11 in 4.0 mi SSW 3.5 mph - N/A   Haze
10:53 PM 34.0 °F 29.8 °F 26.1 °F 73% 30.12 in 8.0 mi SSW 4.6 mph - N/A   Clear
11:53 PM 34.0 °F - 28.0 °F 79% 30.12 in 9.0 mi Calm Calm - N/A   Clear